^^

..:: Storico WU ::..




Lo storico viene creato da WUnderground con i dati che la stazione Meteomincio invia al loro server. L' aggiornamento viene fatto ogni 5 minuti circa, tuttavia possono esserci intervalli pił ampi a causa di errori, interruzioni di servizio o problemi nell' invio tramite FTP.


Storico stazione MeteoMincio
Giorno Sommario per Giugno 15, 2022 Unità:  Inglese    Metrico   Entrambi
Giorno Settimana Mese Anno
  Max: Min: Media:
Temperatura: 89.6 °F 68 °F 78.8 °F
Dew Point: 71.6 °F 59 °F 64.9 °F
Umidità: 78% 49% 64%
Velocità vento: 8.1mph 1.2mph 4.2mph
Raffica: 16.2mph - -
Direzione- - East
Pressione: 30.1 in 30 in -
Precipitazioni: 0 in    
 
 
Tabulato Dati per Giugno 15, 2022
Ora Temperatura Dew Point Pressione Direzione Velocità vento Raffica Umidità Intensità pioggia (oraria) Info solare Situazione
00:04 73.4 °F 62.6 °F 30 in ENE 5 mph 6.8 mph 69% 0 in 0.00 W/m2 unknown
00:09 71.6 °F 62.6 °F 30 in NE 3.7 mph 5 mph 70% 0 in 0.00 W/m2 unknown
00:14 71.6 °F 62.6 °F 30 in NE 3.1 mph 5 mph 70% 0 in 0.00 W/m2 unknown
00:19 71.6 °F 62.6 °F 30 in NE 3.1 mph 5 mph 71% 0 in 0.00 W/m2 unknown
00:24 71.6 °F 62.6 °F 30 in NE 3.1 mph 3.7 mph 71% 0 in 0.00 W/m2 unknown
00:29 71.6 °F 60.8 °F 30 in NE 3.1 mph 3.7 mph 72% 0 in 0.00 W/m2 unknown
00:34 71.6 °F 60.8 °F 30 in ENE 3.1 mph 5 mph 72% 0 in 0.00 W/m2 unknown
00:39 71.6 °F 62.6 °F 30 in ENE 3.7 mph 6.8 mph 73% 0 in 0.00 W/m2 unknown
00:44 71.6 °F 62.6 °F 30 in ENE 5 mph 6.8 mph 73% 0 in 0.00 W/m2 unknown
00:49 69.8 °F 60.8 °F 30 in ENE 5 mph 6.8 mph 73% 0 in 0.00 W/m2 unknown
00:54 69.8 °F 60.8 °F 30 in ENE 5 mph 6.8 mph 73% 0 in 0.00 W/m2 unknown
00:59 69.8 °F 60.8 °F 30 in ENE 3.7 mph 5 mph 74% 0 in 0.00 W/m2 unknown
01:04 69.8 °F 60.8 °F 30 in ENE 3.1 mph 5 mph 74% 0 in 0.00 W/m2 unknown
01:09 69.8 °F 60.8 °F 30 in NE 3.1 mph 3.7 mph 74% 0 in 0.00 W/m2 unknown
01:14 69.8 °F 60.8 °F 30 in NE 3.1 mph 5 mph 74% 0 in 0.00 W/m2 unknown
01:19 69.8 °F 60.8 °F 30 in NE 4.3 mph 5 mph 74% 0 in 0.00 W/m2 unknown
01:24 69.8 °F 60.8 °F 30 in NE 3.7 mph 5 mph 74% 0 in 0.00 W/m2 unknown
01:29 69.8 °F 60.8 °F 30 in NE 3.1 mph 5 mph 74% 0 in 0.00 W/m2 unknown
01:34 69.8 °F 60.8 °F 30 in NE 3.7 mph 6.2 mph 74% 0 in 0.00 W/m2 unknown
01:39 69.8 °F 60.8 °F 30 in NE 3.7 mph 6.2 mph 75% 0 in 0.00 W/m2 unknown
01:44 69.8 °F 60.8 °F 30 in NE 3.7 mph 6.2 mph 75% 0 in 0.00 W/m2 unknown
01:49 69.8 °F 60.8 °F 30 in NE 3.7 mph 6.2 mph 75% 0 in 0.00 W/m2 unknown
01:54 69.8 °F 60.8 °F 30 in NE 3.1 mph 5 mph 75% 0 in 0.00 W/m2 unknown
01:59 69.8 °F 60.8 °F 30 in ENE 3.1 mph 3.7 mph 75% 0 in 0.00 W/m2 unknown
02:04 69.8 °F 60.8 °F 30 in NE 3.1 mph 3.7 mph 76% 0 in 0.00 W/m2 unknown
02:09 69.8 °F 60.8 °F 30 in NE 1.9 mph 3.7 mph 76% 0 in 0.00 W/m2 unknown
02:14 69.8 °F 60.8 °F 30 in NE 1.2 mph 3.7 mph 76% 0 in 0.00 W/m2 unknown
02:19 69.8 °F 60.8 °F 30 in NE 2.5 mph 3.7 mph 76% 0 in 0.00 W/m2 unknown
02:24 69.8 °F 60.8 °F 30 in ENE 2.5 mph 3.7 mph 76% 0 in 0.00 W/m2 unknown
02:29 69.8 °F 60.8 °F 30 in NE 2.5 mph 3.7 mph 76% 0 in 0.00 W/m2 unknown
02:34 68 °F 60.8 °F 30 in ENE 2.5 mph 3.7 mph 77% 0 in 0.00 W/m2 unknown
02:39 68 °F 60.8 °F 30 in NE 2.5 mph 3.7 mph 77% 0 in 0.00 W/m2 unknown
02:44 68 °F 60.8 °F 30 in NE 2.5 mph 3.7 mph 77% 0 in 0.00 W/m2 unknown
02:49 68 °F 60.8 °F 30 in NE 2.5 mph 3.7 mph 77% 0 in 0.00 W/m2 unknown
02:54 68 °F 60.8 °F 30 in NE 3.1 mph 3.7 mph 76% 0 in 0.00 W/m2 unknown
02:59 68 °F 60.8 °F 30 in NE 3.1 mph 3.7 mph 76% 0 in 0.00 W/m2 unknown
03:04 69.8 °F 60.8 °F 30 in NE 2.5 mph 3.7 mph 76% 0 in 0.00 W/m2 unknown
03:09 69.8 °F 60.8 °F 30 in NE 3.1 mph 3.7 mph 75% 0 in 0.00 W/m2 unknown
03:14 69.8 °F 60.8 °F 30 in ENE 3.7 mph 5 mph 75% 0 in 0.00 W/m2 unknown
03:19 69.8 °F 60.8 °F 30 in ENE 3.7 mph 5 mph 74% 0 in 0.00 W/m2 unknown
03:24 69.8 °F 60.8 °F 30 in ENE 3.1 mph 5 mph 73% 0 in 0.00 W/m2 unknown
03:29 69.8 °F 60.8 °F 30 in ENE 3.1 mph 5 mph 73% 0 in 0.00 W/m2 unknown
03:34 69.8 °F 60.8 °F 30 in ENE 3.1 mph 5 mph 73% 0 in 0.00 W/m2 unknown
03:39 69.8 °F 60.8 °F 30 in ENE 3.1 mph 5 mph 73% 0 in 0.00 W/m2 unknown
03:44 69.8 °F 60.8 °F 30 in ENE 3.1 mph 5 mph 73% 0 in 0.00 W/m2 unknown
03:49 68 °F 59 °F 30 in ENE 3.1 mph 5 mph 73% 0 in 0.00 W/m2 unknown
03:54 68 °F 59 °F 30 in ENE 3.7 mph 5 mph 73% 0 in 0.00 W/m2 unknown
03:59 68 °F 59 °F 30 in ENE 3.7 mph 5 mph 73% 0 in 0.00 W/m2 unknown
04:03 69.8 °F 59 °F 30 in NE 3.1 mph 3.7 mph 72% 0 in 0.00 W/m2 unknown
04:08 69.8 °F 59 °F 30 in NE 3.1 mph 3.7 mph 72% 0 in 0.00 W/m2 unknown
04:13 69.8 °F 59 °F 30 in ENE 3.1 mph 3.7 mph 71% 0 in 0.00 W/m2 unknown
04:19 69.8 °F 59 °F 30 in NE 3.1 mph 3.7 mph 70% 0 in 0.00 W/m2 unknown
04:24 69.8 °F 59 °F 30 in NE 3.1 mph 3.7 mph 70% 0 in 0.00 W/m2 unknown
04:28 69.8 °F 59 °F 30 in NE 3.1 mph 3.7 mph 70% 0 in 0.00 W/m2 unknown
04:34 69.8 °F 59 °F 30 in ENE 3.7 mph 3.7 mph 69% 0 in 0.00 W/m2 unknown
04:38 69.8 °F 59 °F 30 in ENE 3.1 mph 3.7 mph 69% 0 in 0.00 W/m2 unknown
04:44 69.8 °F 59 °F 30 in ENE 3.7 mph 5 mph 70% 0 in 0.00 W/m2 unknown
04:48 69.8 °F 59 °F 30 in ENE 3.7 mph 5 mph 70% 0 in 0.00 W/m2 unknown
04:53 69.8 °F 59 °F 30 in NE 3.7 mph 5 mph 70% 0 in 0.00 W/m2 unknown
04:58 69.8 °F 59 °F 30 in ENE 3.7 mph 5 mph 71% 0 in 0.00 W/m2 unknown
05:03 69.8 °F 59 °F 30 in ENE 3.7 mph 5 mph 71% 0 in 0.00 W/m2 unknown
05:08 68 °F 59 °F 30 in ENE 3.1 mph 5 mph 71% 0 in 0.00 W/m2 unknown
05:14 68 °F 59 °F 30 in ENE 3.1 mph 3.7 mph 72% 0 in 0.00 W/m2 unknown
05:19 68 °F 59 °F 30 in ENE 3.1 mph 3.7 mph 73% 0 in 0.00 W/m2 unknown
05:24 68 °F 59 °F 30 in ENE 3.7 mph 5 mph 74% 0 in 0.00 W/m2 unknown
05:29 68 °F 59 °F 30 in ENE 3.7 mph 5 mph 74% 0 in 0.00 W/m2 unknown
05:34 68 °F 59 °F 30 in ENE 3.7 mph 5 mph 74% 0 in 0.00 W/m2 unknown
05:38 68 °F 59 °F 30 in ENE 3.7 mph 5 mph 74% 0 in 5.00 W/m2 unknown
05:44 68 °F 60.8 °F 30 in ENE 4.3 mph 6.8 mph 75% 0 in 7.00 W/m2 unknown
05:49 68 °F 60.8 °F 30 in ENE 4.3 mph 6.8 mph 75% 0 in 7.00 W/m2 unknown
05:54 68 °F 60.8 °F 30 in ENE 5 mph 6.8 mph 75% 0 in 11.00 W/m2 unknown
05:59 68 °F 60.8 °F 30 in ENE 3.7 mph 6.8 mph 75% 0 in 16.00 W/m2 unknown
06:04 68 °F 60.8 °F 30 in ENE 3.7 mph 5 mph 75% 0 in 16.00 W/m2 unknown
06:09 68 °F 60.8 °F 30 in ENE 3.7 mph 5 mph 76% 0 in 26.00 W/m2 unknown
06:14 68 °F 60.8 °F 30 in ENE 3.1 mph 5 mph 76% 0 in 32.00 W/m2 unknown
06:19 68 °F 60.8 °F 30 in ENE 3.1 mph 3.7 mph 76% 0 in 33.00 W/m2 unknown
06:24 68 °F 60.8 °F 30 in East 1.9 mph 3.7 mph 76% 0 in 37.00 W/m2 unknown
06:29 68 °F 60.8 °F 30 in ENE 3.7 mph 5 mph 76% 0 in 46.00 W/m2 unknown
06:34 68 °F 60.8 °F 30 in NE 4.3 mph 6.2 mph 76% 0 in 49.00 W/m2 unknown
06:39 68 °F 60.8 °F 30 in NE 5 mph 6.2 mph 76% 0 in 53.00 W/m2 unknown
06:44 69.8 °F 60.8 °F 30 in NE 5 mph 6.8 mph 76% 0 in 67.00 W/m2 unknown
06:49 69.8 °F 60.8 °F 30 in ENE 5 mph 6.8 mph 77% 0 in 69.00 W/m2 unknown
06:54 69.8 °F 60.8 °F 30 in ENE 3.7 mph 5 mph 77% 0 in 69.00 W/m2 unknown
06:59 69.8 °F 60.8 °F 30 in ENE 4.3 mph 6.8 mph 77% 0 in 63.00 W/m2 unknown
07:04 69.8 °F 62.6 °F 30.1 in NE 5 mph 6.8 mph 78% 0 in 107.00 W/m2 unknown
07:09 69.8 °F 62.6 °F 30.1 in ENE 5 mph 6.8 mph 78% 0 in 125.00 W/m2 unknown
07:14 69.8 °F 62.6 °F 30.1 in ENE 2.5 mph 4.3 mph 77% 0 in 134.00 W/m2 unknown
07:18 69.8 °F 62.6 °F 30.1 in ENE 3.1 mph 5 mph 77% 0 in 137.00 W/m2 unknown
07:24 69.8 °F 62.6 °F 30.1 in ENE 5 mph 6.8 mph 76% 0 in 158.00 W/m2 unknown
07:29 69.8 °F 62.6 °F 30.1 in NE 5 mph 6.8 mph 76% 0 in 171.00 W/m2 unknown
07:34 71.6 °F 62.6 °F 30.1 in ENE 5 mph 6.8 mph 76% 0 in 179.00 W/m2 unknown
07:39 71.6 °F 62.6 °F 30.1 in ENE 3.1 mph 6.8 mph 75% 0 in 192.00 W/m2 unknown
07:44 71.6 °F 62.6 °F 30.1 in ENE 5 mph 6.8 mph 75% 0 in 207.00 W/m2 unknown
07:47 71.6 °F 62.6 °F 30.1 in ENE 5.6 mph 6.8 mph 74% 0 in 218.00 W/m2 unknown
07:54 71.6 °F 62.6 °F 30.1 in ENE 5.6 mph 8.1 mph 73% 0 in 239.00 W/m2 unknown
07:59 73.4 °F 62.6 °F 30.1 in East 6.2 mph 8.1 mph 73% 0 in 250.00 W/m2 unknown
08:04 73.4 °F 64.4 °F 30.1 in ENE 5 mph 6.8 mph 72% 0 in 267.00 W/m2 unknown
08:09 73.4 °F 64.4 °F 30.1 in ENE 4.3 mph 6.2 mph 72% 0 in 283.00 W/m2 unknown
08:14 73.4 °F 64.4 °F 30.1 in ENE 5 mph 6.8 mph 71% 0 in 295.00 W/m2 unknown
08:19 73.4 °F 64.4 °F 30.1 in East 5 mph 8.1 mph 70% 0 in 308.00 W/m2 unknown
08:24 73.4 °F 64.4 °F 30.1 in East 5.6 mph 8.1 mph 71% 0 in 318.00 W/m2 unknown
08:29 75.2 °F 64.4 °F 30.1 in East 5 mph 8.1 mph 70% 0 in 334.00 W/m2 unknown
08:34 75.2 °F 64.4 °F 30.1 in ESE 5 mph 8.1 mph 70% 0 in 345.00 W/m2 unknown
08:39 75.2 °F 64.4 °F 30.1 in East 6.2 mph 9.3 mph 70% 0 in 359.00 W/m2 unknown
08:44 75.2 °F 64.4 °F 30.1 in ESE 6.2 mph 9.3 mph 69% 0 in 373.00 W/m2 unknown
08:49 75.2 °F 64.4 °F 30.1 in ESE 6.2 mph 9.3 mph 69% 0 in 385.00 W/m2 unknown
08:54 75.2 °F 64.4 °F 30.1 in ESE 6.2 mph 10.6 mph 68% 0 in 394.00 W/m2 unknown
08:59 75.2 °F 64.4 °F 30.1 in East 8.1 mph 10.6 mph 68% 0 in 410.00 W/m2 unknown
09:04 77 °F 64.4 °F 30.1 in ESE 8.1 mph 10.6 mph 67% 0 in 420.00 W/m2 unknown
09:09 77 °F 64.4 °F 30.1 in East 7.5 mph 9.3 mph 67% 0 in 438.00 W/m2 unknown
09:14 77 °F 64.4 °F 30.1 in East 6.8 mph 9.3 mph 66% 0 in 452.00 W/m2 unknown
09:19 77 °F 64.4 °F 30.1 in East 6.8 mph 9.3 mph 67% 0 in 464.00 W/m2 unknown
09:24 77 °F 64.4 °F 30.1 in East 6.8 mph 9.3 mph 66% 0 in 475.00 W/m2 unknown
09:29 77 °F 66.2 °F 30.1 in ESE 6.2 mph 9.3 mph 67% 0 in 494.00 W/m2 unknown
09:34 78.8 °F 64.4 °F 30.1 in ESE 5 mph 8.1 mph 66% 0 in 503.00 W/m2 unknown
09:39 78.8 °F 64.4 °F 30.1 in East 5 mph 8.7 mph 65% 0 in 515.00 W/m2 unknown
09:44 78.8 °F 66.2 °F 30.1 in ESE 6.8 mph 9.3 mph 65% 0 in 529.00 W/m2 unknown
09:49 78.8 °F 64.4 °F 30.1 in ESE 7.5 mph 9.3 mph 64% 0 in 541.00 W/m2 unknown
09:54 78.8 °F 64.4 °F 30.1 in ESE 7.5 mph 9.3 mph 62% 0 in 554.00 W/m2 unknown
09:59 78.8 °F 64.4 °F 30.1 in East 7.5 mph 9.9 mph 63% 0 in 566.00 W/m2 unknown
10:04 78.8 °F 66.2 °F 30.1 in ESE 7.5 mph 10.6 mph 64% 0 in 578.00 W/m2 unknown
10:09 80.6 °F 66.2 °F 30.1 in ESE 6.2 mph 9.9 mph 64% 0 in 592.00 W/m2 unknown
10:14 80.6 °F 66.2 °F 30.1 in East 5.6 mph 8.7 mph 63% 0 in 603.00 W/m2 unknown
10:19 80.6 °F 68 °F 30.1 in East 5 mph 8.1 mph 65% 0 in 610.00 W/m2 unknown
10:24 80.6 °F 66.2 °F 30.1 in ENE 5 mph 8.1 mph 63% 0 in 622.00 W/m2 unknown
10:29 80.6 °F 66.2 °F 30.1 in ESE 5 mph 9.3 mph 63% 0 in 631.00 W/m2 unknown
10:34 80.6 °F 66.2 °F 30.1 in ESE 5 mph 9.3 mph 63% 0 in 643.00 W/m2 unknown
10:39 80.6 °F 66.2 °F 30.1 in East 5 mph 13 mph 63% 0 in 652.00 W/m2 unknown
10:44 80.6 °F 66.2 °F 30.1 in ENE 6.8 mph 13 mph 62% 0 in 666.00 W/m2 unknown
10:49 80.6 °F 66.2 °F 30.1 in East 6.2 mph 13 mph 62% 0 in 675.00 W/m2 unknown
10:54 80.6 °F 66.2 °F 30.1 in SE 6.2 mph 11.8 mph 61% 0 in 687.00 W/m2 unknown
10:59 82.4 °F 66.2 °F 30.1 in East 5.6 mph 10.6 mph 61% 0 in 696.00 W/m2 unknown
11:04 82.4 °F 66.2 °F 30.1 in ENE 8.1 mph 10.6 mph 61% 0 in 705.00 W/m2 unknown
11:09 80.6 °F 66.2 °F 30.1 in East 8.1 mph 10.6 mph 59% 0 in 717.00 W/m2 unknown
11:14 82.4 °F 66.2 °F 30.1 in East 6.8 mph 9.9 mph 60% 0 in 726.00 W/m2 unknown
11:19 82.4 °F 66.2 °F 30.1 in ENE 6.2 mph 9.3 mph 60% 0 in 731.00 W/m2 unknown
11:24 82.4 °F 68 °F 30.1 in ENE 6.2 mph 9.3 mph 62% 0 in 738.00 W/m2 unknown
11:29 82.4 °F 68 °F 30.1 in NE 6.2 mph 8.7 mph 62% 0 in 745.00 W/m2 unknown
11:34 82.4 °F 68 °F 30.1 in East 5 mph 8.1 mph 61% 0 in 754.00 W/m2 unknown
11:39 82.4 °F 66.2 °F 30.1 in East 5 mph 8.1 mph 59% 0 in 758.00 W/m2 unknown
11:44 82.4 °F 66.2 °F 30.1 in East 6.2 mph 10.6 mph 59% 0 in 770.00 W/m2 unknown
11:49 82.4 °F 68 °F 30.1 in East 6.8 mph 10.6 mph 59% 0 in 779.00 W/m2 unknown
11:54 82.4 °F 68 °F 30 in East 6.8 mph 9.9 mph 59% 0 in 784.00 W/m2 unknown
11:59 82.4 °F 66.2 °F 30 in East 6.8 mph 8.7 mph 58% 0 in 793.00 W/m2 unknown
12:04 84.2 °F 66.2 °F 30 in ENE 5 mph 6.8 mph 57% 0 in 796.00 W/m2 unknown
12:09 84.2 °F 66.2 °F 30 in ENE 6.2 mph 11.8 mph 57% 0 in 800.00 W/m2 unknown
12:14 84.2 °F 68 °F 30 in ENE 8.1 mph 11.8 mph 58% 0 in 805.00 W/m2 unknown
12:19 84.2 °F 68 °F 30 in NE 6.8 mph 11.8 mph 57% 0 in 812.00 W/m2 unknown
12:24 84.2 °F 68 °F 30 in NNE 6.2 mph 9.9 mph 57% 0 in 816.00 W/m2 unknown
12:28 86 °F 68 °F 30 in NE 5.6 mph 9.3 mph 56% 0 in 817.00 W/m2 unknown
12:34 86 °F 68 °F 30 in East 5.6 mph 9.3 mph 55% 0 in 824.00 W/m2 unknown
12:39 84.2 °F 68 °F 30 in East 6.2 mph 9.3 mph 57% 0 in 830.00 W/m2 unknown
12:44 84.2 °F 68 °F 30 in East 6.2 mph 8.7 mph 57% 0 in 863.00 W/m2 unknown
12:49 84.2 °F 68 °F 30 in East 5.6 mph 8.7 mph 56% 0 in 874.00 W/m2 unknown
12:54 86 °F 69.8 °F 30 in ENE 6.2 mph 8.7 mph 59% 0 in 847.00 W/m2 unknown
12:59 86 °F 68 °F 30 in ENE 5 mph 8.1 mph 56% 0 in 840.00 W/m2 unknown
13:04 86 °F 68 °F 30 in ENE 3.7 mph 6.8 mph 56% 0 in 858.00 W/m2 unknown
13:09 86 °F 68 °F 30 in ENE 3.7 mph 10.6 mph 54% 0 in 893.00 W/m2 unknown
13:14 86 °F 66.2 °F 30 in ENE 5.6 mph 11.8 mph 53% 0 in 854.00 W/m2 unknown
13:19 86 °F 66.2 °F 30 in East 6.2 mph 11.8 mph 53% 0 in 854.00 W/m2 unknown
13:24 86 °F 68 °F 30 in NNW 6.2 mph 11.8 mph 54% 0 in 840.00 W/m2 unknown
13:29 86 °F 68 °F 30 in NE 6.2 mph 11.8 mph 54% 0 in 837.00 W/m2 unknown
13:34 86 °F 68 °F 30 in ESE 4.3 mph 6.8 mph 53% 0 in 807.00 W/m2 unknown
13:39 86 °F 68 °F 30 in East 5 mph 6.8 mph 53% 0 in 809.00 W/m2 unknown
13:44 86 °F 68 °F 30 in SE 5 mph 6.8 mph 53% 0 in 831.00 W/m2 unknown
13:49 86 °F 68 °F 30 in SE 5 mph 6.8 mph 53% 0 in 828.00 W/m2 unknown
13:54 86 °F 66.2 °F 30 in ESE 3.7 mph 6.2 mph 52% 0 in 854.00 W/m2 unknown
13:59 86 °F 68 °F 30 in ESE 3.7 mph 6.2 mph 54% 0 in 863.00 W/m2 unknown
14:04 87.8 °F 69.8 °F 30 in NE 3.1 mph 6.2 mph 56% 0 in 863.00 W/m2 unknown
14:09 87.8 °F 68 °F 30 in ENE 1.9 mph 6.2 mph 53% 0 in 853.00 W/m2 unknown
14:14 87.8 °F 69.8 °F 30 in ENE 4.3 mph 8.7 mph 57% 0 in 849.00 W/m2 unknown
14:19 87.8 °F 68 °F 30 in East 4.3 mph 9.3 mph 53% 0 in 838.00 W/m2 unknown
14:24 87.8 °F 68 °F 30 in ENE 3.1 mph 9.3 mph 54% 0 in 830.00 W/m2 unknown
14:29 87.8 °F 68 °F 30 in ENE 5 mph 9.3 mph 53% 0 in 826.00 W/m2 unknown
14:34 87.8 °F 69.8 °F 30 in NE 6.2 mph 9.3 mph 55% 0 in 810.00 W/m2 unknown
14:39 87.8 °F 69.8 °F 30 in NE 5.6 mph 9.3 mph 55% 0 in 800.00 W/m2 unknown
14:44 87.8 °F 68 °F 30 in East 6.2 mph 9.3 mph 51% 0 in 777.00 W/m2 unknown
14:49 87.8 °F 69.8 °F 30 in SSE 1.9 mph 3.7 mph 54% 0 in 777.00 W/m2 unknown
14:54 87.8 °F 68 °F 30 in NNE 1.9 mph 3.7 mph 53% 0 in 775.00 W/m2 unknown
14:59 89.6 °F 68 °F 30 in ENE 4.3 mph 6.8 mph 52% 0 in 768.00 W/m2 unknown
15:04 89.6 °F 69.8 °F 30 in NE 6.2 mph 9.3 mph 53% 0 in 795.00 W/m2 unknown
15:09 89.6 °F 68 °F 30 in East 6.2 mph 8.7 mph 52% 0 in 786.00 W/m2 unknown
15:14 89.6 °F 68 °F 30 in ESE 6.2 mph 8.1 mph 51% 0 in 780.00 W/m2 unknown
15:19 89.6 °F 69.8 °F 30 in East 6.2 mph 8.1 mph 53% 0 in 775.00 W/m2 unknown
15:24 89.6 °F 68 °F 30 in NE 5 mph 8.1 mph 52% 0 in 765.00 W/m2 unknown
15:29 89.6 °F 68 °F 30 in East 3.7 mph 6.8 mph 50% 0 in 752.00 W/m2 unknown
15:34 87.8 °F 68 °F 30 in East 4.3 mph 6.2 mph 52% 0 in 747.00 W/m2 unknown
15:39 89.6 °F 68 °F 30 in ESE 3.7 mph 6.2 mph 51% 0 in 740.00 W/m2 unknown
15:44 89.6 °F 68 °F 30 in ESE 3.7 mph 6.2 mph 51% 0 in 735.00 W/m2 unknown
15:49 87.8 °F 69.8 °F 30 in SE 3.1 mph 6.2 mph 53% 0 in 682.00 W/m2 unknown
15:54 87.8 °F 68 °F 30 in East 3.7 mph 5 mph 52% 0 in 640.00 W/m2 unknown
15:59 87.8 °F 68 °F 30 in ESE 3.7 mph 5 mph 53% 0 in 515.00 W/m2 unknown
16:04 87.8 °F 68 °F 30 in ESE 3.1 mph 5 mph 52% 0 in 585.00 W/m2 unknown
16:09 87.8 °F 68 °F 30 in ESE 1.9 mph 5 mph 53% 0 in 570.00 W/m2 unknown
16:14 87.8 °F 68 °F 30 in ENE 1.9 mph 3.7 mph 53% 0 in 529.00 W/m2 unknown
16:19 89.6 °F 69.8 °F 30 in NNE 1.9 mph 3.7 mph 53% 0 in 548.00 W/m2 unknown
16:24 89.6 °F 69.8 °F 30 in NNW 1.9 mph 3.7 mph 53% 0 in 531.00 W/m2 unknown
16:29 89.6 °F 68 °F 30 in North 1.2 mph 3.7 mph 52% 0 in 485.00 W/m2 unknown
16:34 89.6 °F 68 °F 30 in WNW 1.9 mph 3.7 mph 51% 0 in 445.00 W/m2 unknown
16:39 89.6 °F 68 °F 30 in West 1.9 mph 3.7 mph 51% 0 in 360.00 W/m2 unknown
16:44 89.6 °F 68 °F 30 in WSW 1.9 mph 3.7 mph 52% 0 in 281.00 W/m2 unknown
16:49 87.8 °F 68 °F 30 in WNW 2.5 mph 5 mph 50% 0 in 325.00 W/m2 unknown
16:54 89.6 °F 69.8 °F 30 in North 3.7 mph 6.8 mph 54% 0 in 397.00 W/m2 unknown
16:59 87.8 °F 69.8 °F 30 in NE 4.3 mph 6.8 mph 56% 0 in 406.00 W/m2 unknown
17:04 87.8 °F 69.8 °F 30 in NE 3.7 mph 6.8 mph 55% 0 in 406.00 W/m2 unknown
17:09 87.8 °F 69.8 °F 30 in ENE 3.7 mph 5 mph 56% 0 in 519.00 W/m2 unknown
17:14 87.8 °F 69.8 °F 30 in NE 3.1 mph 5 mph 54% 0 in 503.00 W/m2 unknown
17:19 89.6 °F 69.8 °F 30 in NNE 2.5 mph 3.7 mph 54% 0 in 475.00 W/m2 unknown
17:24 89.6 °F 69.8 °F 30 in NW 1.9 mph 3.7 mph 52% 0 in 462.00 W/m2 unknown
17:29 89.6 °F 68 °F 30 in West 1.9 mph 3.7 mph 51% 0 in 455.00 W/m2 unknown
17:34 89.6 °F 69.8 °F 30 in NW 2.5 mph 3.7 mph 52% 0 in 466.00 W/m2 unknown
17:39 89.6 °F 69.8 °F 30 in WNW 1.9 mph 5 mph 52% 0 in 519.00 W/m2 unknown
17:44 89.6 °F 68 °F 30 in WNW 3.7 mph 5 mph 49% 0 in 441.00 W/m2 unknown
17:49 89.6 °F 68 °F 30 in WNW 3.7 mph 5 mph 50% 0 in 200.00 W/m2 unknown
17:54 89.6 °F 68 °F 30 in WNW 3.7 mph 5 mph 50% 0 in 200.00 W/m2 unknown
17:59 89.6 °F 68 °F 30 in WNW 3.7 mph 5 mph 51% 0 in 102.00 W/m2 unknown
18:04 87.8 °F 68 °F 30 in West 3.1 mph 5 mph 53% 0 in 171.00 W/m2 unknown
18:09 87.8 °F 68 °F 30 in West 2.5 mph 3.7 mph 52% 0 in 325.00 W/m2 unknown
18:14 87.8 °F 68 °F 30 in WNW 2.5 mph 3.7 mph 52% 0 in 260.00 W/m2 unknown
18:19 87.8 °F 68 °F 30 in WNW 1.2 mph 3.7 mph 50% 0 in 299.00 W/m2 unknown
18:24 87.8 °F 69.8 °F 30 in WNW 1.2 mph 3.7 mph 53% 0 in 366.00 W/m2 unknown
18:29 87.8 °F 69.8 °F 30 in West 1.9 mph 3.7 mph 54% 0 in 336.00 W/m2 unknown
18:34 87.8 °F 69.8 °F 30 in West 2.5 mph 5 mph 53% 0 in 320.00 W/m2 unknown
18:39 87.8 °F 69.8 °F 30 in WSW 2.5 mph 4.3 mph 54% 0 in 292.00 W/m2 unknown
18:44 87.8 °F 69.8 °F 30 in SW 1.9 mph 5 mph 53% 0 in 279.00 W/m2 unknown
18:49 87.8 °F 69.8 °F 30 in WSW 2.5 mph 3.7 mph 53% 0 in 276.00 W/m2 unknown
18:54 87.8 °F 68 °F 30 in WSW 2.5 mph 3.7 mph 52% 0 in 276.00 W/m2 unknown
18:59 87.8 °F 68 °F 30 in SW 2.5 mph 3.7 mph 52% 0 in 137.00 W/m2 unknown
19:04 87.8 °F 68 °F 30 in WSW 1.9 mph 3.7 mph 52% 0 in 137.00 W/m2 unknown
19:09 87.8 °F 68 °F 30 in WSW 1.2 mph 3.7 mph 52% 0 in 113.00 W/m2 unknown
19:14 87.8 °F 69.8 °F 30 in West 1.9 mph 3.7 mph 55% 0 in 100.00 W/m2 unknown
19:19 87.8 °F 69.8 °F 30 in WSW 1.9 mph 3.7 mph 57% 0 in 155.00 W/m2 unknown
19:24 87.8 °F 69.8 °F 30 in ESE 1.9 mph 3.7 mph 57% 0 in 160.00 W/m2 unknown
19:29 87.8 °F 69.8 °F 30 in ESE 2.5 mph 3.7 mph 57% 0 in 176.00 W/m2 unknown
19:34 86 °F 71.6 °F 30 in ESE 2.5 mph 5 mph 60% 0 in 171.00 W/m2 unknown
19:39 86 °F 71.6 °F 30 in ESE 3.7 mph 5 mph 60% 0 in 171.00 W/m2 unknown
19:44 86 °F 69.8 °F 30 in East 3.7 mph 5 mph 59% 0 in 144.00 W/m2 unknown
19:49 86 °F 69.8 °F 30 in East 3.1 mph 5 mph 59% 0 in 116.00 W/m2 unknown
19:54 86 °F 69.8 °F 30 in East 3.1 mph 5 mph 60% 0 in 100.00 W/m2 unknown
19:59 86 °F 69.8 °F 30 in ENE 1.9 mph 3.7 mph 60% 0 in 77.00 W/m2 unknown
20:04 86 °F 69.8 °F 30 in East 1.9 mph 3.7 mph 60% 0 in 69.00 W/m2 unknown
20:09 86 °F 69.8 °F 30 in East 1.9 mph 3.7 mph 61% 0 in 65.00 W/m2 unknown
20:14 86 °F 69.8 °F 30 in East 1.9 mph 3.1 mph 60% 0 in 47.00 W/m2 unknown
20:19 86 °F 69.8 °F 30 in East 1.2 mph 2.5 mph 60% 0 in 44.00 W/m2 unknown
20:24 86 °F 69.8 °F 30 in East 1.2 mph 2.5 mph 59% 0 in 35.00 W/m2 unknown
20:29 86 °F 69.8 °F 30 in East 1.9 mph 3.1 mph 60% 0 in 14.00 W/m2 unknown
20:34 86 °F 69.8 °F 30 in ESE 5.6 mph 10.6 mph 62% 0 in 7.00 W/m2 unknown
20:39 84.2 °F 69.8 °F 30 in ESE 6.8 mph 10.6 mph 62% 0 in 5.00 W/m2 unknown
20:44 84.2 °F 68 °F 30 in ESE 6.2 mph 9.9 mph 60% 0 in 5.00 W/m2 unknown
20:49 84.2 °F 68 °F 30 in SE 4.3 mph 8.1 mph 59% 0 in 5.00 W/m2 unknown
20:54 82.4 °F 66.2 °F 30 in ESE 4.3 mph 6.8 mph 58% 0 in 5.00 W/m2 unknown
20:59 82.4 °F 66.2 °F 30 in ESE 5 mph 8.1 mph 59% 0 in 0.00 W/m2 unknown
21:04 82.4 °F 66.2 °F 30 in ESE 5.6 mph 8.1 mph 60% 0 in 0.00 W/m2 unknown
21:09 82.4 °F 66.2 °F 30 in East 5 mph 8.1 mph 61% 0 in 0.00 W/m2 unknown
21:14 82.4 °F 66.2 °F 30 in ESE 6.2 mph 9.9 mph 61% 0 in 0.00 W/m2 unknown
21:19 80.6 °F 66.2 °F 30 in ESE 7.5 mph 9.9 mph 61% 0 in 0.00 W/m2 unknown
21:24 80.6 °F 66.2 °F 30 in ESE 7.5 mph 11.8 mph 62% 0 in 0.00 W/m2 unknown
21:29 80.6 °F 66.2 °F 30 in East 6.8 mph 14.9 mph 62% 0 in 0.00 W/m2 unknown
21:34 80.6 °F 66.2 °F 30 in East 8.1 mph 16.2 mph 62% 0 in 0.00 W/m2 unknown
21:39 80.6 °F 66.2 °F 30 in East 8.1 mph 16.2 mph 62% 0 in 0.00 W/m2 unknown
21:44 80.6 °F 66.2 °F 30 in East 6.8 mph 9.3 mph 63% 0 in 0.00 W/m2 unknown
21:49 78.8 °F 66.2 °F 30 in ENE 5.6 mph 9.3 mph 63% 0 in 0.00 W/m2 unknown
21:54 78.8 °F 66.2 °F 30 in ENE 5.6 mph 9.9 mph 63% 0 in 0.00 W/m2 unknown
21:59 78.8 °F 66.2 °F 30 in East 6.2 mph 10.6 mph 63% 0 in 0.00 W/m2 unknown
22:04 78.8 °F 64.4 °F 30 in ENE 6.2 mph 10.6 mph 63% 0 in 0.00 W/m2 unknown
22:09 78.8 °F 64.4 °F 30 in ENE 5 mph 8.1 mph 62% 0 in 0.00 W/m2 unknown
22:14 78.8 °F 64.4 °F 30 in NE 5.6 mph 8.1 mph 62% 0 in 0.00 W/m2 unknown
22:19 77 °F 64.4 °F 30 in ENE 6.2 mph 8.1 mph 62% 0 in 0.00 W/m2 unknown
22:24 77 °F 62.6 °F 30 in ENE 6.2 mph 9.9 mph 61% 0 in 0.00 W/m2 unknown
22:29 77 °F 62.6 °F 30 in ENE 6.2 mph 10.6 mph 61% 0 in 0.00 W/m2 unknown
22:34 77 °F 62.6 °F 30 in ENE 6.2 mph 9.9 mph 61% 0 in 0.00 W/m2 unknown
22:39 77 °F 62.6 °F 30 in ENE 6.2 mph 9.3 mph 61% 0 in 0.00 W/m2 unknown
22:44 77 °F 62.6 °F 30 in ENE 6.2 mph 8.1 mph 62% 0 in 0.00 W/m2 unknown
22:49 77 °F 62.6 °F 30 in ENE 5 mph 6.2 mph 63% 0 in 0.00 W/m2 unknown
22:54 77 °F 62.6 °F 30 in ENE 3.1 mph 5 mph 63% 0 in 0.00 W/m2 unknown
22:59 75.2 °F 62.6 °F 30 in ENE 3.1 mph 6.2 mph 64% 0 in 0.00 W/m2 unknown
23:04 75.2 °F 62.6 °F 30 in ENE 4.3 mph 6.2 mph 64% 0 in 0.00 W/m2 unknown
23:09 75.2 °F 62.6 °F 30 in ENE 5 mph 6.2 mph 64% 0 in 0.00 W/m2 unknown
23:14 75.2 °F 62.6 °F 30 in East 3.1 mph 6.2 mph 64% 0 in 0.00 W/m2 unknown
23:19 75.2 °F 62.6 °F 30 in East 3.1 mph 3.7 mph 64% 0 in 0.00 W/m2 unknown
23:23 75.2 °F 62.6 °F 30 in East 2.5 mph 3.7 mph 65% 0 in 0.00 W/m2 unknown
23:29 75.2 °F 62.6 °F 30 in ESE 3.7 mph 5 mph 65% 0 in 0.00 W/m2 unknown
23:34 75.2 °F 62.6 °F 30 in ENE 3.1 mph 5 mph 65% 0 in 0.00 W/m2 unknown
23:39 75.2 °F 62.6 °F 30 in NE 3.1 mph 5 mph 65% 0 in 0.00 W/m2 unknown
23:44 75.2 °F 62.6 °F 30 in NNE 2.5 mph 5 mph 65% 0 in 0.00 W/m2 unknown
23:49 75.2 °F 62.6 °F 30 in NNE 3.1 mph 5 mph 65% 0 in 0.00 W/m2 unknown
23:54 75.2 °F 62.6 °F 30 in NNE 3.1 mph 3.7 mph 65% 0 in 0.00 W/m2 unknown
23:59 75.2 °F 62.6 °F 30 in NNE 3.1 mph 5 mph 65% 0 in 0.00 W/m2 unknown
Stazione Meteorologica MeteoMincio Rivalta s/M (MN)
Con i complimenti di Weather Underground - 4 mb



METEO PILLOLE
Il più grande ciclone tropicale
Pacifico occidentale
Al culmine della sua potenza, il 12 ottobre 1979, il tifone Tip imperversa su un raggio di circa 1100 km. La pressione di 870 mb registrata nell'occhio di questo ciclone è la più bassa mai rilevata sulla Terra al livello del mare.
Share

Non seguire questo link o sarai bannato dal sito!